02:00
Airports
History
Links
Donate
Help keep this website running!
PayPal
Bitcoin
This page is community maintained. The information is intended for PC simulator navigation or reference.
Always use approved charts for navigation.
96A
Carey
Carey (96A)
Crossville, Tennessee, United States (38571)
4
Lat/Lng:36° 4' 20.24" N / 85° 6' 49.86" W
36.072289 / -85.113851
Elevation:1960'ft / 597mMSL
ID / ICAO:96A
Runways:1
Longest:06-24
Grass 451m / 1,478ft
Nearby Weather01:53 GMT 2018-02-24
Nearby weather at KCSV, Crossville Memorial-whitson Fi located 8.5 nautical miles from 96A
Altimeter: 30.26
Visibility: 10.0 statute miles
Wind: 5 knots (from 180°)
Temp: 19°c / 66°f
Humidity: 68.2%

METAR: KCSV 240153Z AUTO 18005KT 10SM CLR 19/13 A3026 RMK AO2 SLP233 T01890128

(Powered by phpweather)
Nearby VORs <50NM
Nearby NDBs
Runway 06 / 24
Dimensions:450.6 x 22.9m 1478' x 75'ft
Surface:Grass
Runway 06 [A]Runway 24 [B]
Heading:058°TH 238°TH
Lat:
Lng:
36° 4' 16.31"N
85° 6' 57.63"W
36° 4' 24.16"N
85° 6' 42.09"W
User Notes and Comments
36° 4' 20.24" N / 85° 6' 49.86" W
Distance To
Airport ID:
Nearby Airports
(R) Carey 0.0 NM
TN56 E 90°
(U) Crossville Memorial-whitson Fi 8.5 NM
KCSV ( WX ) S 169°
(R) Buck Creek Ranch 15.4 NM
4TN2 SSE 148°
(R) Schiff 20.7 NM
TN80 WNW 302°
(U) Jamestown Muni 21.3 NM
2A1 NNE 25°
(R) Austin Field 23.0 NM
TN66 S 170°
(U) Upper Cumberland Rgnl 23.3 NM
KSRB W 267°
VFR Chart
Flight Planning at SkyVector.com